Thedford, NE

11:19 PM CST on February 09, 2016 (GMT -0600)
Thedford

Weather History for KTIF - September, 2013

Change the Weather History Date:

Sunday, September 15, 2013

  Actual Average (KLBF) Record (KLBF)
Temperature  
Mean Temperature 64 °F 63 °F  
Max Temperature 68 °F 78 °F 97 °F (1955)
Min Temperature 57 °F 47 °F 32 °F (1903)
Degree Days  
Heating Degree Days 2 5  
Month to date heating degree days 44  
Since 1 July heating degree days 64  
Cooling Degree Days 0 2  
Month to date cooling degree days 53  
Year to date cooling degree days 748  
Growing Degree Days 14 (Base 50)    
Moisture  
Dew Point 54 °F    
Average Humidity 74    
Maximum Humidity 90    
Minimum Humidity 56    
Precipitation  
Precipitation 0.00 in 0.04 in 2.82 in (2013)
Month to date precipitation 0.70  
Year to date precipitation 16.92  
Snow  
Snow 0.00 in 0.00 in 0.00 in (2002)
Month to date snowfall 0.0  
Since 1 July snowfall 0.0  
Since 1 September snowfall 0.0  
Snow Depth -    
Sea Level Pressure  
Sea Level Pressure 30.17 in    
Wind  
Wind Speed 11 mph (NNE)    
Max Wind Speed 21 mph    
Max Gust Speed 25 mph    
Visibility 10 miles    
Events Thunderstorm    
T = Trace of Precipitation, MM = Missing Value Source: NWS Daily Summary

Daily Weather History Graph

Daily Weather History Graph

Search for Another Location

Airport or City:

Trip Planner

Search our weather history database for the weather conditions in past years. The results will help you decide how hot, cold, wet, or windy it might be!

Date:

Astronomy

Sep. 15, 2013 Rise Set
Actual Time 7:22 AM CDT 7:51 PM CDT
Civil Twilight 6:54 AM CDT 8:19 PM CDT
Nautical Twilight 6:21 AM CDT 8:52 PM CDT
Astronomical Twilight 5:47 AM CDT 9:26 PM CDT
Moon 5:22 PM CDT (9/15) 2:59 AM CDT (9/15)
Length of Visible Light 13h 24m
Length of Day
12h 28m
Waxing Gibbous, 82% of the Moon is Illuminated
Sep 15
Waxing Gibbous
Sep 19
Full
Sep 26
Last Quarter
Oct 4
New
Oct 11
First Quarter

Hourly Weather History & Observations

Time (CDT) Temp. Dew Point Humidity Pressure Visibility Wind Dir Wind Speed Gust Speed Precip Events Conditions
12:15 AM 70.3 °F 61.7 °F 74% 29.93 in 10.0 mi WNW 4.6 mph - N/A   Mostly Cloudy
12:35 AM 69.8 °F 60.6 °F 73% 29.94 in 10.0 mi North 13.8 mph 19.6 mph N/A   Overcast
12:55 AM 67.1 °F 60.3 °F 79% 29.95 in 10.0 mi NNE 10.4 mph 18.4 mph N/A   Light Drizzle
1:15 AM 64.8 °F 58.8 °F 81% 29.96 in 10.0 mi North 9.2 mph 20.7 mph N/A   Scattered Clouds
1:35 AM 63.9 °F 58.8 °F 84% 29.97 in 10.0 mi North 9.2 mph - N/A Thunderstorm Scattered Clouds
1:55 AM 63.5 °F 58.8 °F 85% 29.98 in 10.0 mi North 9.2 mph 17.3 mph N/A Thunderstorm Thunderstorm
2:15 AM 63.9 °F 59.0 °F 84% 29.98 in 10.0 mi North 9.2 mph - N/A   Overcast
2:35 AM 64.2 °F 59.5 °F 85% 29.99 in 10.0 mi North 10.4 mph - N/A   Overcast
2:55 AM 63.9 °F 60.1 °F 87% 29.99 in 10.0 mi North 11.5 mph 17.3 mph N/A   Overcast
3:15 AM 62.8 °F 59.9 °F 90% 29.99 in 5.0 mi North 11.5 mph 17.3 mph N/A   Overcast
3:35 AM 62.6 °F 59.4 °F 89% 30.00 in 10.0 mi North 10.4 mph 17.3 mph N/A   Overcast
3:55 AM 62.1 °F 58.8 °F 89% 30.01 in 10.0 mi NNE 9.2 mph - N/A   Overcast
4:15 AM 62.2 °F 58.3 °F 87% 30.02 in 10.0 mi NNE 9.2 mph - N/A   Overcast
4:35 AM 62.6 °F 57.6 °F 84% 30.02 in 10.0 mi North 12.7 mph 19.6 mph N/A   Overcast
4:55 AM 62.1 °F 57.2 °F 84% 30.03 in 10.0 mi North 12.7 mph 20.7 mph N/A   Overcast
5:15 AM 61.0 °F 56.7 °F 86% 30.04 in 10.0 mi North 10.4 mph - N/A   Overcast
5:35 AM 60.8 °F 56.7 °F 86% 30.05 in 10.0 mi North 13.8 mph 17.3 mph N/A   Overcast
5:55 AM 60.3 °F 55.6 °F 85% 30.07 in 10.0 mi NNE 13.8 mph 20.7 mph N/A   Overcast
6:15 AM 60.1 °F 55.4 °F 85% 30.08 in 10.0 mi NNE 11.5 mph 19.6 mph N/A   Overcast
6:35 AM 60.1 °F 55.0 °F 83% 30.09 in 10.0 mi NNE 10.4 mph - N/A   Overcast
6:55 AM 59.9 °F 54.9 °F 83% 30.10 in 10.0 mi NNE 13.8 mph 23.0 mph N/A   Overcast
7:15 AM 59.0 °F 55.2 °F 87% 30.10 in 10.0 mi NE 12.7 mph - N/A   Overcast
7:35 AM 59.4 °F 54.7 °F 84% 30.11 in 10.0 mi NNE 10.4 mph - N/A   Overcast
7:55 AM 58.3 °F 53.8 °F 85% 30.13 in 10.0 mi NNE 16.1 mph 23.0 mph N/A   Overcast
8:15 AM 57.9 °F 53.2 °F 84% 30.14 in 7.0 mi NNE 16.1 mph 20.7 mph N/A   Overcast
8:35 AM 57.4 °F 53.2 °F 86% 30.14 in 10.0 mi North 12.7 mph - N/A   Overcast
8:55 AM 57.9 °F 53.2 °F 84% 30.14 in 10.0 mi NNE 15.0 mph 20.7 mph N/A   Overcast
9:15 AM 58.8 °F 52.2 °F 79% 30.15 in 10.0 mi NNE 12.7 mph 21.9 mph N/A   Overcast
9:35 AM 58.3 °F 52.2 °F 80% 30.16 in 10.0 mi NNE 16.1 mph 23.0 mph N/A   Overcast
9:55 AM 58.5 °F 52.0 °F 79% 30.17 in 10.0 mi NE 20.7 mph 24.2 mph N/A   Overcast
10:15 AM 58.6 °F 51.8 °F 78% 30.18 in 10.0 mi NNE 15.0 mph 23.0 mph N/A   Overcast
10:35 AM 59.2 °F 51.8 °F 77% 30.18 in 10.0 mi NNE 19.6 mph - N/A   Overcast
10:55 AM 59.9 °F 51.3 °F 73% 30.19 in 10.0 mi NNE 15.0 mph 21.9 mph N/A   Overcast
11:15 AM 60.8 °F 51.1 °F 70% 30.20 in 10.0 mi NE 16.1 mph 23.0 mph N/A   Overcast
11:35 AM 61.3 °F 51.6 °F 70% 30.20 in 10.0 mi NNE 16.1 mph 23.0 mph N/A   Overcast
11:55 AM 62.4 °F 51.3 °F 67% 30.21 in 10.0 mi NNE 15.0 mph 23.0 mph N/A   Overcast
12:15 PM 63.5 °F 50.7 °F 63% 30.21 in 10.0 mi NE 13.8 mph 23.0 mph N/A   Overcast
12:35 PM 64.6 °F 50.9 °F 61% 30.21 in 10.0 mi NNE 15.0 mph 23.0 mph N/A   Overcast
12:55 PM 66.9 °F 51.3 °F 57% 30.21 in 10.0 mi NNE 18.4 mph 25.3 mph N/A   Overcast
1:15 PM 65.5 °F 50.9 °F 59% 30.22 in 10.0 mi NNE 16.1 mph 24.2 mph N/A   Mostly Cloudy
1:35 PM 65.8 °F 50.7 °F 58% 30.22 in 10.0 mi NE 15.0 mph 23.0 mph N/A   Mostly Cloudy
1:55 PM 65.7 °F 51.4 °F 60% 30.23 in 10.0 mi NNE 13.8 mph - N/A   Mostly Cloudy
2:15 PM 65.8 °F 51.8 °F 60% 30.23 in 10.0 mi NNE 17.3 mph 23.0 mph N/A   Mostly Cloudy
2:35 PM 66.7 °F 52.0 °F 59% 30.23 in 10.0 mi NE 16.1 mph 20.7 mph N/A   Mostly Cloudy
2:55 PM 67.6 °F 51.3 °F 56% 30.23 in 10.0 mi NE 15.0 mph 21.9 mph N/A   Mostly Cloudy
3:15 PM 66.9 °F 52.3 °F 59% 30.24 in 10.0 mi North 13.8 mph 25.3 mph N/A   Mostly Cloudy
3:35 PM 66.9 °F 50.9 °F 56% 30.24 in 10.0 mi NE 18.4 mph 21.9 mph N/A   Mostly Cloudy
3:55 PM 65.7 °F 51.8 °F 61% 30.24 in 10.0 mi NNE 17.3 mph 21.9 mph N/A   Mostly Cloudy
4:15 PM 66.7 °F 51.1 °F 57% 30.24 in 10.0 mi NE 15.0 mph 20.7 mph N/A   Mostly Cloudy
4:35 PM 65.1 °F 51.4 °F 61% 30.25 in 10.0 mi NNE 17.3 mph 21.9 mph N/A   Mostly Cloudy
4:55 PM 64.9 °F 51.3 °F 61% 30.25 in 10.0 mi NE 15.0 mph - N/A   Mostly Cloudy
5:15 PM 63.1 °F 50.9 °F 64% 30.25 in 10.0 mi NE 11.5 mph 19.6 mph N/A   Mostly Cloudy
5:35 PM 63.1 °F 50.9 °F 64% 30.26 in 7.0 mi NE 12.7 mph 16.1 mph N/A   Mostly Cloudy
5:55 PM 63.3 °F 51.1 °F 64% 30.26 in 10.0 mi NNE 12.7 mph 17.3 mph N/A   Overcast
6:15 PM 64.4 °F 51.1 °F 62% 30.26 in 10.0 mi NNE 13.8 mph 18.4 mph N/A   Overcast
6:35 PM 63.3 °F 51.8 °F 66% 30.26 in 10.0 mi NNE 13.8 mph - N/A   Overcast
6:55 PM 62.8 °F 51.1 °F 66% 30.26 in 10.0 mi NE 10.4 mph - N/A   Overcast
7:15 PM 62.4 °F 51.1 °F 66% 30.27 in 10.0 mi NE 11.5 mph - N/A   Overcast
7:35 PM 61.7 °F 51.3 °F 69% 30.27 in 10.0 mi NE 11.5 mph 16.1 mph N/A   Overcast
7:55 PM 61.7 °F 51.8 °F 70% 30.27 in 10.0 mi NE 8.1 mph - N/A   Overcast
8:15 PM 61.3 °F 51.3 °F 69% 30.28 in 10.0 mi NE 8.1 mph - N/A   Overcast
8:35 PM 61.2 °F 51.4 °F 70% 30.28 in 10.0 mi NE 10.4 mph - N/A   Overcast
8:55 PM 60.8 °F 52.0 °F 73% 30.29 in 10.0 mi NE 8.1 mph - N/A   Overcast
9:15 PM 60.8 °F 52.2 °F 73% 30.29 in 10.0 mi NE 8.1 mph - N/A   Overcast
9:35 PM 60.4 °F 52.2 °F 74% 30.30 in 10.0 mi NE 6.9 mph - N/A   Overcast
9:55 PM 60.1 °F 52.3 °F 76% 30.30 in 10.0 mi ENE 6.9 mph - N/A   Overcast
10:15 PM 60.1 °F 52.7 °F 77% 30.30 in 10.0 mi ENE 6.9 mph - N/A   Overcast
10:35 PM 59.9 °F 52.7 °F 77% 30.31 in 10.0 mi ENE 8.1 mph - N/A   Overcast
10:55 PM 59.9 °F 52.7 °F 77% 30.31 in 10.0 mi East 8.1 mph - N/A   Overcast
11:15 PM 59.5 °F 52.5 °F 78% 30.31 in 10.0 mi East 8.1 mph - N/A   Overcast
11:35 PM 59.2 °F 52.0 °F 77% 30.32 in 10.0 mi East 9.2 mph - N/A   Overcast
11:55 PM 59.0 °F 52.0 °F 78% 30.32 in 10.0 mi East 5.8 mph - N/A   Overcast